Regional Weather Roundup
Issued by NWS Sterling, VA

Home | Current Version | Previous Version | Graphics & Text | Print | Product List | Glossary On
Versions: 1 2 3 4 5 6 7 8 9 10 11 12 13 14 15 16 17 18 19 20 21 22 23 24 25 26 27 28 29 30 31 32 33 34 35 36 37 38 39 40 41 42 43 44 45 46 47 48
000
ASUS41 KLWX 181910
RWRLWX

REGIONAL WEATHER ROUNDUP
NATIONAL WEATHER SERVICE BALTIMORE MD/WASHINGTON DC
200 PM EST THU DEC 18 2014

Note: "FAIR" indicates few or no clouds below 12,000 feet
with no significant weather and/or obstructions to visibility.
 TC=TEMPERATURE CELSIUS

 * =Non NWS site. Station does not report precipitation (e.g. rain,
    snow, etc.), thunder, or fog.

DCZ001-MDZ009-015-VAZ040>042-051-053>054-182000-
WASHINGTON METRO

CITY           SKY/WX    TMP DP  RH WIND       PRES   REMARKS
WASHINGTON NAT PTSUNNY   42  22  44 NW18      30.12F
DULLES         PTSUNNY   38  21  50 NW16      30.10F WCI  29
ANDREWS AFB    MOSUNNY   39  22  50 NW16      30.09F
FT BELVOIR     SUNNY     40  21  46 NW15G26   30.12F
QUANTICO       MOSUNNY   42  22  44 N9        30.13S
COLLEGE PARK*  SUNNY     41  23  48 NW10G18   30.10S
LEESBURG*      CLOUDY    37  27  65 NW13G22   30.11F
MANASSAS*      MOSUNNY   39  25  56 N12G18    30.12F
GAITHERSBURG*  CLOUDY    36  19  51 NW16      30.12F WCI  26

$$

MDZ006>007-011-014-182000-
BALTIMORE METRO

CITY           SKY/WX    TMP DP  RH WIND       PRES   REMARKS
BWI AIRPORT    PTSUNNY   38  22  52 NW14      30.09F
MD SCIENCE CTR   N/A     37  21  52 MISG      30.09F
MARTIN STATE   PTSUNNY   39  25  56 W20       30.10
ANNAPOLIS      MOSUNNY   39  24  55 NW15G22   30.09F
FORT MEADE*    PTSUNNY   37  23  56 NW13G20   30.12S

$$

MDZ012-015-019>023-182000-
MARYLAND EASTERN SHORE

CITY           SKY/WX    TMP DP  RH WIND       PRES   REMARKS
OCEAN CITY     SUNNY     41  23  48 NW12      30.05F
SALISBURY      SUNNY     43  23  45 NW13G21   30.06F
BAY BRIDGE AP*   N/A     39  23  52 NW13G18   30.09F
CAMBRIDGE*     SUNNY     41  25  52 NW10G20   30.07
EASTON*        MOSUNNY   41  25  52 NW10G20   30.11F

$$

MDZ017>025-182000-
SOUTHERN MARYLAND

CITY           SKY/WX    TMP DP  RH WIND       PRES   REMARKS
PATUXENT RIVER MOSUNNY   41  21  44 NW15      30.09F
ST INIGOES     SUNNY     43  21  41 VRB7      30.09F
LEONARDTOWN*   SUNNY     39  21  48 W10       30.10F

$$

MDZ003>005-182000-
NORTH CENTRAL MARYLAND

CITY           SKY/WX    TMP DP  RH WIND       PRES   REMARKS
FREDERICK*     CLOUDY    39  19  45 NW15G23   30.14F
HAGERSTOWN APT CLOUDY    36  21  54 NW15      30.09F WCI  27
WESTMINSTER*   CLOUDY    34  21  60 NW14      30.07F WCI  24

$$

MDZ501>502-182000-
WESTERN MARYLAND

CITY           SKY/WX    TMP DP  RH WIND       PRES   REMARKS
OAKLAND*       CLOUDY    21 N/A N/A W7        30.03F HAZE
CUMBERLAND*    CLOUDY    34  21  60 W5        30.18F

$$

VAZ025>031-182000-
SHENANDOAH VALLEY

CITY           SKY/WX    TMP DP  RH WIND       PRES   REMARKS
WINCHESTER*    PTSUNNY   36  19  51 NW13G22   30.10F WCI  27
FRONT ROYAL*   FAIR      36  23  60 NW6       30.09F
LURAY*         FAIR      41  23  48 CALM      30.07F
NEW MARKET*    FAIR      37  22  55 NE8       30.07F
STAUNTON*      MOSUNNY   40  21  46 NE5       30.07F
WAYNESBORO*    FAIR      37  21  52 NE3       30.05F

$$

WVZ021-048>050-054>055-182000-
EASTERN WEST VIRGINIA PANHANDLE

CITY           SKY/WX    TMP DP  RH WIND       PRES   REMARKS
MARTINSBURG    PTSUNNY   37  19  48 NW15G24   30.11F WCI  28
PETERSBURG*    MOSUNNY   39  20  46 NE5       30.11F

$$

VAZ036>039-050-182000-
CENTRAL FOOTHILLS

CITY           SKY/WX    TMP DP  RH WIND       PRES   REMARKS
CHARLOTTESVILL MOSUNNY   43  21  41 S7        30.07F
CULPEPER*      SUNNY     43  25  49 N7        30.10F
ORANGE*        MOSUNNY   41  23  48 CALM      30.10F
GORDONSVILLE*  FAIR      41  22  46 NE3       30.08F
WARRENTON*     FAIR      43  30  59 N9        30.09F

$$

VAZ055>057-182000-
NORTH AND CENTRAL PIEDMONT

CITY           SKY/WX    TMP DP  RH WIND       PRES   REMARKS
FREDERICKSBRG* SUNNY     44  24  46 NW12      30.10F
STAFFORD*      SUNNY     41  22  47 NW7       30.14F

$$

NCZ024-NYZ072-PAZ021-071-VAZ022-071-182000-
OTHER REGIONAL OBSERVATIONS

CITY           SKY/WX    TMP DP  RH WIND       PRES   REMARKS
NEW YORK CITY  PTSUNNY   41  22  46 W10G20    29.95F
PHILADELPHIA   MOSUNNY   41  23  48 W17G23    30.03F
PITTSBURGH     FLURRIES  29  21  72 W8        30.15F WCI  21
ROANOKE        CLOUDY    40  22  48 W7        30.10F
RICHMOND       MOSUNNY   47  21  35 NW9       30.10F
RALEIGH        PTSUNNY   50  23  34 W6        30.11F

$$

ANZ530>537-182000-
MARINE OBSERVATIONS

STATION/POSITION TIME  TEMP    WIND        PRES
                       AIR SEA DIR/SP/G
                 (UTC) (F)     (DEG/KT/KT) (MB)
THOMAS PT LIGHT  1900   37 42  300/ 19/ 22 1019.6F
BALT KEY BRIDGE  1900   37     290/ 17/ 19 1018.5F
COVE POINT       1900   37     350/ 16/ 18 1018.6F
LEWISETTA        1900   40 44  310/  9/ 13 1018.8R
SOLOMONS ISLAND  1900      44                N/A
PINEY POINT      1900          350/ 15/ 17   N/A

$$




USA.gov is the U.S. government's official web portal to all federal, state and local government web resources and services.